Location: Bathurst
(33.4193°S, 149.5775°E)
Time: 08:58:21
(UTC+10:00)

Vanguard 1 Rocket - Pass Details

Date: 15 June 2021
Orbit: 650 x 4226 km, 34.3° (Epoch: 02 August)

Event Time Altitude Azimuth Distance (km) Brightness Sun altitude
Rises 05:00:06 0° 359° (N) 8,451 12.5 -25.0°
Reaches altitude 10° 05:15:21 10° 29° (NNE) 7,102 12.5 -21.9°
Maximum altitude 05:19:38 11° 40° (NE) 6,816 12.6 -21.1°
Drops below altitude 10° 05:23:38 10° 51° (NE) 6,625 12.7 -20.2°
Sets 05:34:49 0° 82° (E) 6,673 13.5 -18.0°
